Willimantic, CT

6:15 AM EDT on October 15, 2019 (GMT -0400)
Windham

Weather History for KIJD - June, 2019

Change the Weather History Date:

Wednesday, June 12, 2019

  Actual Average Record
Temperature  
Mean Temperature 62 °F -  
Max Temperature 75 °F 77 °F 95 °F (2017)
Min Temperature 48 °F 50 °F 34 °F (1972)
Degree Days  
Heating Degree Days 4    
Growing Degree Days 12 (Base 50)    
Moisture  
Dew Point 47 °F    
Average Humidity 72    
Maximum Humidity 97    
Minimum Humidity 33    
Precipitation  
Precipitation 0.00 in - - ()
Sea Level Pressure  
Sea Level Pressure 30.15 in    
Wind  
Wind Speed 2 mph ()    
Max Wind Speed 12 mph    
Max Gust Speed 20 mph    
Visibility 8.2 miles    
Events Fog    
Averages and records for this station are not official NWS values.
T = Trace of Precipitation, MM = Missing Value Source: Averaged Metar Reports

Daily Weather History Graph

Daily Weather History Graph

Search for Another Location

Airport or City:

Astronomy

Jun. 12, 2019 Rise Set
Actual Time 5:13 AM EDT 8:23 PM EDT
Civil Twilight 4:39 AM EDT 8:57 PM EDT
Nautical Twilight 3:55 AM EDT 9:41 PM EDT
Astronomical Twilight 3:03 AM EDT 10:34 PM EDT
Moon 3:23 PM EDT (6/12) 2:31 AM EDT (6/12)
Length of Visible Light 16h 18m
Length of Day
15h 10m
Waxing Gibbous, 76% of the Moon is Illuminated
Jun 12
Waxing Gibbous
Jun 17
Full
Jun 25
Last Quarter
Jul 2
New
Jul 9
First Quarter

Hourly Weather History & Observations

Time (EDT) Temp. Dew Point Humidity Pressure Visibility Wind Dir Wind Speed Gust Speed Precip Events Conditions
12:52 AM 54.0 °F 51.1 °F 90% 30.07 in 10.0 mi East 3.5 mph - N/A   Clear
1:52 AM 52.0 °F 50.0 °F 93% 30.09 in 10.0 mi NE 3.5 mph - N/A   Clear
2:52 AM 51.1 °F 48.9 °F 92% 30.10 in 10.0 mi Calm Calm - N/A   Clear
3:52 AM 50.0 °F 46.9 °F 89% 30.11 in 10.0 mi Calm Calm - N/A   Clear
4:27 AM 48.9 °F 46.9 °F 93% 30.12 in 10.0 mi Calm Calm - N/A   Scattered Clouds
4:36 AM 48.9 °F 46.9 °F 93% 30.12 in 10.0 mi Calm Calm - N/A   Mostly Cloudy
4:52 AM 48.9 °F 46.9 °F 93% 30.12 in 10.0 mi Calm Calm - N/A   Overcast
5:12 AM 48.9 °F 46.9 °F 93% 30.14 in 10.0 mi Calm Calm - N/A   Scattered Clouds
5:31 AM 48.0 °F 46.9 °F 96% 30.15 in 1.8 mi Calm Calm - N/A   Partly Cloudy
5:41 AM 48.9 °F 46.9 °F 93% 30.15 in 3.0 mi Calm Calm - N/A   Clear
5:52 AM 48.0 °F 46.9 °F 96% 30.15 in 7.0 mi Calm Calm - N/A   Clear
6:10 AM 48.9 °F 46.9 °F 93% 30.16 in 5.0 mi Calm Calm - N/A   Scattered Clouds
6:12 AM 48.9 °F 48.0 °F 97% 30.17 in 1.2 mi Calm Calm - N/A   Scattered Clouds
6:17 AM 50.0 °F 48.9 °F 96% 30.17 in 0.2 mi Calm Calm - N/A Fog Fog
6:44 AM 50.0 °F 48.9 °F 96% 30.18 in 1.2 mi ENE 3.5 mph - N/A   Mostly Cloudy
6:47 AM 50.0 °F 48.2 °F 94% 30.18 in 3.0 mi NE 3.5 mph - N/A   Mostly Cloudy
6:52 AM 50.0 °F 48.9 °F 96% 30.18 in 6.0 mi Calm Calm - N/A   Scattered Clouds
7:52 AM 55.9 °F 51.1 °F 84% 30.19 in 10.0 mi Calm Calm - N/A   Clear
8:52 AM 63.0 °F 53.1 °F 70% 30.19 in 10.0 mi Calm Calm - N/A   Clear
9:52 AM 68.0 °F 48.0 °F 49% 30.19 in 10.0 mi ENE 4.6 mph - N/A   Clear
10:52 AM 70.0 °F 46.0 °F 42% 30.19 in 10.0 mi Calm Calm - N/A   Clear
11:52 AM 70.0 °F 43.0 °F 38% 30.19 in 10.0 mi SW 3.5 mph - N/A   Clear
12:52 PM 73.0 °F 46.9 °F 39% 30.18 in 10.0 mi WSW 5.8 mph - N/A   Clear
1:52 PM 73.0 °F 45.0 °F 37% 30.17 in 10.0 mi South 5.8 mph - N/A   Partly Cloudy
2:52 PM 75.0 °F 44.1 °F 33% 30.16 in 10.0 mi SSE 9.2 mph - N/A   Clear
3:52 PM 75.0 °F 48.9 °F 40% 30.14 in 10.0 mi SW 9.2 mph - N/A   Clear
4:52 PM 73.9 °F 48.9 °F 41% 30.13 in 10.0 mi SSW 9.2 mph - N/A   Clear
5:52 PM 72.0 °F 44.1 °F 37% 30.13 in 10.0 mi South 10.4 mph 19.6 mph N/A   Clear
6:52 PM 70.0 °F 43.0 °F 38% 30.15 in 10.0 mi South 11.5 mph - N/A   Clear
7:52 PM 64.9 °F 45.0 °F 48% 30.16 in 10.0 mi South 9.2 mph - N/A   Clear
8:52 PM 62.1 °F 46.9 °F 58% 30.16 in 10.0 mi South 4.6 mph - N/A   Clear
9:52 PM 59.0 °F 46.9 °F 64% 30.17 in 10.0 mi SSE 3.5 mph - N/A   Clear
10:52 PM 55.9 °F 48.0 °F 75% 30.16 in 10.0 mi Calm Calm - N/A   Clear
11:52 PM 55.9 °F 48.9 °F 77% 30.16 in 10.0 mi Calm Calm - N/A   Clear